Regional Weather Roundup
Issued by NWS State College, PA

Home | Current Version | Previous Version | Text Only | Print | Product List | Glossary On
Versions: 1 2 3 4 5 6 7 8 9 10 11 12 13 14 15 16 17 18 19 20 21 22 23 24 25 26 27 28 29 30 31 32 33 34 35 36 37 38 39 40 41 42 43 44 45 46 47 48 49 50
000
ASUS41 KCTP 042310
RWRCTP

REGIONAL WEATHER ROUNDUP
NATIONAL WEATHER SERVICE STATE COLLEGE PA
700 PM EDT FRI SEP 04 2015

Note: "fair" indicates few or no clouds below 12,000 feet with no
significant weather and/or obstructions to visibility.

* = STATION THAT DOES NOT REPORT PRECIPITATION /E.G. RAIN...SNOW...ETC/
    THUNDER OR FOG.

PAZ002>004-007>009-013>016-020>023-029>032-050000-
WESTERN PENNSYLVANIA

CITY           SKY/WX    TMP DP  RH WIND       PRES   REMARKS
ERIE           CLEAR     81  65  58 N5        30.07S
MEADVILLE      CLEAR     79  64  60 W5        30.10R
FRANKLIN*      CLEAR     81  64  57 CALM      30.12R
NEW CASTLE     FAIR      83  69  62 CALM      30.09S
BEAVER COUNTY  CLEAR     81  63  54 NW5       30.09R
BUTLER*        PTCLDY    73  66  78 CALM      30.11R
PITTSBURGH INT PTCLDY    85  59  41 W6        30.08R
PITTSBURGH     CLOUDY    84  59  42 E9        30.08R
INDIANA*       PTCLDY    72  68  88 CALM      30.14S
LATROBE        MOCLDY    81  64  57 CALM      30.11R
WASHINGTON CO* PTCLDY    81  61  50 CALM      30.10R
$$

PAZ004>006-010>012-017>019-024>028-033>037-041-042-045-046-049>053-050000-
CENTRAL PENNSYLVANIA

CITY           SKY/WX    TMP DP  RH WIND       PRES   REMARKS
BRADFORD       PTCLDY    73  66  78 CALM      30.14R THUNDER
DUBOIS         MOCLDY    73  67  81 SW3       30.13R HAZE
CLEARFIELD     MOCLDY    79  65  62 SW3       30.12R THUNDER
JOHNSTOWN      CLOUDY    70  61  73 S3        30.16R
ALTOONA        MOCLDY    77  66  68 CALM      30.11R
STATE COLLEGE  CLEAR     79  68  69 NE3       30.10R
WILLIAMSPORT   PTCLDY    75  69  81 SE5       30.08R
SELINSGROVE    MOCLDY    80  70  71 E5        30.08R
FT INDIANTOWN  MOCLDY    80  68  66 SE8G17    30.09R
CAPITAL CITY   MOCLDY    82  65  56 S13       30.07R
HARRISBURG     MOCLDY    81  67  62 S9        30.07R
YORK           CLOUDY    76  66  71 E3        30.08R
$$

PAZ038>040-043-044-047-048-054-055-060>062-067>071-050000-
EASTERN PENNSYLVANIA

CITY           SKY/WX    TMP DP  RH WIND       PRES   REMARKS
SCRANTON       CLEAR     80  67  64 VRB6      30.11R
MOUNT POCONO   CLOUDY    73  66  78 SE7       30.18R
ALLENTOWN      PTCLDY    80  68  66 E9        30.11R
QUAKERTOWN*    CLEAR     79  68  69 E8        30.12R
READING        PTCLDY    82  67  60 SE9       30.08R
LANCASTER      MOCLDY    78  70  76 SE6       30.09R HAZE
COATESVILLE    PTCLDY    77  68  73 E12G18    30.12R
POTTSTOWN      PTCLDY    78  68  71 VRB6      30.12R
BLUE BELL      PTCLDY    79  70  73 E8        30.10S
DOYLESTOWN     CLEAR     76  66  71 CALM      30.11R
WILLOW GROVE   NOT AVBL
NORTH PHILA    PTCLDY    79  64  60 E15       30.12R
PHILADELPHIA   CLOUDY    80  67  64 E15       30.10R
$$


USA.gov is the U.S. government's official web portal to all federal, state and local government web resources and services.